Hourly Data Report for July 17, 2021

CAPE RACE (AUT)
NEWFOUNDLAND
Current Station Operator: ECCC - MSC

46°39'36.000" N
53°04'35.000" W
26.50 m
8401000
71800
WRA

Download Data

Hourly Data (July 2021)
Hourly Data Report for July 17, 2021
TIME
LST
Temp Definition
°C
Dew Point Definition
°C
Rel Hum Definition
%
Precip. Amount Definition
mm

Wind Dir Definition
10's deg

Wind Spd Definition
km/h
Visibility Definition
km
Stn Press Definition
kPa
Hmdx Definition


Wind Chill Definition


Weather Definition


00:30 13.1 LegendMM LegendMM 0.0 22 9   101.58     LegendNANA
01:30 14.5 LegendMM LegendMM 0.0 25 10   101.53     LegendNANA
02:30 12.9 LegendMM LegendMM 0.0 23 11   101.53     LegendNANA
03:30 12.8 LegendMM LegendMM 0.0 22 11   101.52     LegendNANA
04:30 14.2 LegendMM LegendMM 0.0 24 11   101.51     LegendNANA
05:30 12.5 LegendMM LegendMM 0.0 21 10   101.53     LegendNANA
06:30 13.4 LegendMM LegendMM 0.0 21 11   101.54     LegendNANA
07:30 13.6 LegendMM LegendMM 0.0 20 10   101.53     LegendNANA
08:30 13.2 LegendMM LegendMM 0.0 20 13   101.50     LegendNANA
09:30 15.0 LegendMM LegendMM 0.0 22 16   101.47     LegendNANA
10:30 14.6 LegendMM LegendMM 0.0 21 15   101.44     LegendNANA
11:30 17.8 LegendMM LegendMM 0.0 21 20   101.41     LegendNANA
12:30 16.9 LegendMM LegendMM 0.0 22 21   101.37     LegendNANA
13:30 15.8 LegendMM LegendMM 0.0 22 21   101.34     LegendNANA
14:30 15.2 LegendMM LegendMM 0.0 22 22   101.31     LegendNANA
15:30 14.9 LegendMM LegendMM 0.0 22 21   101.30     LegendNANA
16:30 14.6 LegendMM LegendMM 0.0 22 21   101.29     LegendNANA
17:30 14.8 LegendMM LegendMM 0.0 23 22   101.26     LegendNANA
18:30 13.9 LegendMM LegendMM 0.0 23 26   101.26     LegendNANA
19:30 14.1 LegendMM LegendMM 0.0 25 28   101.24     LegendNANA
20:30 13.8 LegendMM LegendMM 0.0 26 25   101.24     LegendNANA
21:30 13.6 LegendMM LegendMM 0.0 27 22   101.22     LegendNANA
22:30 13.3 LegendMM LegendMM 0.0 25 16   101.25     LegendNANA
23:30 12.7 LegendMM LegendMM 0.0 23 13   101.25     LegendNANA

Notes on Data Quality.

Legend

  • E = Estimated
  • M = Missing
  • NA = Not Available*
  • [empty] = Indicates an unobserved value
Date modified: